Wetterdaten: aktuell Montag, 06.02.2023 05:00
Datum Zeit Temp. A. Feuchte A. Luftdruck Regen Wind Taupunkt Windchill Windben
06.02.2023 05:00 -3,4 C 94 % 1041,2 hPa 0,0 l/m 1,6 km/h (1 Bft) -4,2 C -3,4 C 4,8 km/h (1 Bft)
06.02.2023 04:50 -3,4 C 93 % 1041,0 hPa 0,0 l/m 2,6 km/h (1 Bft) -4,4 C -3,4 C 4,8 km/h (1 Bft)
06.02.2023 04:40 -3,3 C 93 % 1040,8 hPa 0,0 l/m 2,1 km/h (1 Bft) -4,3 C -3,3 C 4,8 km/h (1 Bft)
06.02.2023 04:30 -3,2 C 94 % 1040,8 hPa 0,0 l/m 0,2 km/h (0 Bft) -4,0 C -3,2 C 1,6 km/h (1 Bft)
06.02.2023 04:20 -3,1 C 94 % 1040,9 hPa 0,0 l/m 0,1 km/h (0 Bft) -3,9 C -3,1 C 1,6 km/h (1 Bft)
06.02.2023 04:10 -3,2 C 93 % 1040,9 hPa 0,0 l/m 0,0 km/h (0 Bft) -4,2 C -3,2 C 1,6 km/h (1 Bft)
06.02.2023 04:00 -3,2 C 93 % 1040,8 hPa 0,0 l/m 0,1 km/h (0 Bft) -4,2 C -3,2 C 1,6 km/h (1 Bft)
06.02.2023 03:50 -3,2 C 93 % 1040,9 hPa 0,0 l/m 0,0 km/h (0 Bft) -4,2 C -3,2 C 0,0 km/h (0 Bft)
06.02.2023 03:40 -3,0 C 93 % 1040,9 hPa 0,0 l/m 0,0 km/h (0 Bft) -4,0 C -3,0 C 0,0 km/h (0 Bft)
06.02.2023 03:30 -2,8 C 93 % 1040,9 hPa 0,0 l/m 0,0 km/h (0 Bft) -3,8 C -2,8 C 0,0 km/h (0 Bft)
06.02.2023 03:20 -2,8 C 93 % 1040,9 hPa 0,0 l/m 0,0 km/h (0 Bft) -3,8 C -2,8 C 0,0 km/h (0 Bft)
06.02.2023 03:10 -2,8 C 93 % 1041,2 hPa 0,0 l/m 0,0 km/h (0 Bft) -3,8 C -2,8 C 0,0 km/h (0 Bft)
06.02.2023 03:00 -2,8 C 93 % 1041,1 hPa 0,0 l/m 0,0 km/h (0 Bft) -3,8 C -2,8 C 0,0 km/h (0 Bft)
06.02.2023 02:50 -2,9 C 93 % 1041,0 hPa 0,0 l/m 0,0 km/h (0 Bft) -3,9 C -2,9 C 0,0 km/h (0 Bft)
06.02.2023 02:40 -2,9 C 92 % 1041,0 hPa 0,0 l/m 0,0 km/h (0 Bft) -4,0 C -2,9 C 0,0 km/h (0 Bft)
06.02.2023 02:30 -2,8 C 92 % 1040,9 hPa 0,0 l/m 0,0 km/h (0 Bft) -3,9 C -2,8 C 0,0 km/h (0 Bft)
06.02.2023 02:20 -2,8 C 92 % 1041,0 hPa 0,0 l/m 0,0 km/h (0 Bft) -3,9 C -2,8 C 0,0 km/h (0 Bft)
06.02.2023 02:10 -2,7 C 92 % 1041,0 hPa 0,0 l/m 0,2 km/h (0 Bft) -3,8 C -2,7 C 1,6 km/h (1 Bft)
06.02.2023 02:00 -2,5 C 91 % 1040,9 hPa 0,0 l/m 0,0 km/h (0 Bft) -3,8 C -2,5 C 0,0 km/h (0 Bft)
06.02.2023 01:50 -2,3 C 92 % 1041,1 hPa 0,0 l/m 0,0 km/h (0 Bft) -3,4 C -2,3 C 0,0 km/h (0 Bft)
06.02.2023 01:40 -2,1 C 92 % 1041,1 hPa 0,0 l/m 0,0 km/h (0 Bft) -3,2 C -2,1 C 0,0 km/h (0 Bft)
_ Min-Zeit 04:50 00:00 00:00 - 00:20 04:50 04:50 00:20
Minimum _ -3,4 C 91 % 1040,8 hPa - 0,0 km/h (0 Bft) -4,4 C -3,4 C 0,0 km/h (0 Bft)
_ Max-Zeit 00:40 04:20 01:30 00:00 04:50 00:40 00:40 04:40
Maximum _ -1,3 C 94 % 1041,2 hPa 0,0 l/m 2,6 km/h
N (1 Bft)
-2,4 C -1,3 C 4,8 km/h
N (1 Bft)
Durchschnitt _ -2,5 C 92 % 1041,0 hPa #0,0 l/m 0,3 km/h (0 Bft) -3,5 C -2,5 C 1,1 km/h (1 Bft)